#timestamp,LO_Frequency,Hit,StdDev 
1510560015.2,286046991.9,N
1510560035.0,286046992.9,N
1510560035.9,286046992.9,N
1510560055.7,286046990.6,N
1510560075.6,286046989.9,N
1510560095.4,286046988.6,N
1510560115.2,286046989.9,N
1510560135.1,286046986.1,Y
1510560136.0,286046986.1,P
1510560155.8,286046992.8,N
1510560175.6,286046994.8,N
1510560195.5,286047000.4,N
1510560215.3,286047005.6,N
1510560235.1,286047003.0,N
1510560255.9,286047001.3,N
1510560275.7,286047001.1,N
1510560295.5,286046996.7,N
1510560315.4,286046998.9,N
1510560335.2,286046996.1,N
1510560355.0,286046994.5,N
1510560355.9,286046994.5,N
1510560375.8,286046991.7,N
1510560395.6,286046990.6,N
1510560415.4,286046992.2,N
1510560435.3,286046994.6,N
1510560455.1,286046992.5,N
1510560456.0,286046992.5,N
1510560475.8,286046996.3,N
1510560495.7,286046994.1,N
1510560515.5,286046992.3,N
1510560535.3,286046992.4,N
1510560555.1,286046994.3,N
1510560575.9,286046992.3,N
1510560595.7,286046991.9,N
1510560615.5,286046990.1,N
1510560635.4,286046992.0,N
1510560655.2,286046993.5,N
1510560675.0,286046996.4,N
1510560675.9,286046996.4,N
1510560695.8,286046997.3,N
1510560715.6,286047000.4,N
1510560735.4,286046999.4,N
1510560755.3,286046999.1,N
1510560775.1,286046995.8,N
1510560776.0,286046995.8,N
1510560795.8,286046993.3,N
1510560815.7,286046995.3,N
1510560835.5,286046991.9,Y
1510560855.3,286046995.3,P
1510560875.2,286046994.6,P
1510560895.9,286046993.2,P
1510560915.7,286046993.3,Y
1510560935.6,286046998.2,P
1510560955.4,286047000.3,N
1510560975.2,286047000.7,N
1510560995.1,286046998.7,N
1510560996.0,286046998.7,N
1510561015.8,286046999.1,N
1510561035.6,286046999.2,N
1510561055.5,286046997.2,N
1510561075.3,286046997.9,N
1510561095.1,286046997.1,N
1510561115.8,286046997.8,N
1510561135.7,286046996.4,N
1510561155.5,286046995.1,Y
1510561175.3,286046996.6,P
1510561195.2,286046996.2,P
1510561215.0,286046993.0,P
1510561215.9,286046993.0,Y
1510561235.8,286046996.4,P
1510561255.6,286046995.8,P
1510561275.4,286047000.8,P
1510561295.2,286047000.0,N
1510561315.1,286047001.7,N
1510561316.0,286047001.7,N
1510561335.8,286047006.0,N
1510561355.6,286047003.8,N
1510561375.5,286047005.8,N
1510561395.3,286047006.4,N
1510561415.1,286047008.6,N
1510561435.9,286047006.1,N
1510561455.7,286047007.5,N
1510561475.5,286047009.2,N
1510561495.4,286047008.2,N
1510561515.2,286047011.9,N
1510561535.0,286047007.8,N
1510561535.9,286047007.8,N
1510561555.8,286047006.5,N
1510561575.6,286047009.1,N
1510561595.4,286047009.6,N
1510561615.3,286047007.7,N
1510561635.1,286047009.7,N
1510561636.0,286047009.7,N
1510561655.8,286047010.3,N
1510561675.6,286047011.8,N
1510561695.5,286047011.9,N
1510561715.3,286047009.4,N
1510561735.1,286047013.1,N
1510561755.9,286047013.0,N
1510561775.7,286047015.5,Y
1510561795.5,286047007.8,P
1510561815.4,286047010.5,P
1510561835.2,286047007.8,P
1510561855.0,286047008.2,Y
1510561856.0,286047008.2,P
1510561875.8,286046998.2,P
1510561895.6,286046999.4,N
1510561915.4,286046999.8,N
1510561935.3,286046999.7,N
1510561955.1,286047000.2,N
1510561975.8,286047001.6,N
1510561995.7,286047001.4,N
1510562015.5,286046999.9,N
1510562035.3,286047000.1,N
1510562055.2,286046999.7,N
1510562075.9,286047001.7,N
1510562095.7,286047003.6,N
1510562115.6,286047007.5,N
1510562135.4,286047005.2,N
1510562155.2,286047002.5,N
1510562175.0,286047000.0,N
1510562176.0,286047000.0,N
1510562195.8,286047000.4,N
1510562215.6,286047003.6,N
1510562235.4,286047001.3,N
1510562255.3,286047001.4,N
1510562275.1,286047006.0,N
1510562295.8,286047005.3,N
1510562315.7,286047002.1,N
1510562335.5,286047000.4,N
1510562355.3,286046999.1,N
1510562375.2,286046997.5,N
1510562395.9,286046996.2,N
1510562415.7,286046993.6,N
1510562435.6,286046995.3,N
1510562455.4,286046997.0,N
1510562475.2,286046998.1,N
1510562495.0,286046998.2,N
1510562496.0,286046998.2,N
1510562515.8,286046999.0,N
1510562535.6,286047000.5,N
1510562555.4,286046999.1,N
1510562575.3,286046998.3,N
1510562595.1,286047001.7,N
1510562615.8,286046998.2,N
1510562635.7,286046994.9,N
1510562655.5,286046999.1,N
1510562675.3,286047002.1,N
1510562695.2,286046999.3,N
1510562715.9,286046997.7,N
1510562735.7,286046997.4,N
1510562755.6,286046996.3,N
1510562775.4,286046993.9,N
1510562795.2,286046994.3,N
1510562815.1,286046993.6,N
1510562816.0,286046993.6,N
1510562835.8,286046995.4,N
1510562855.6,286046997.5,N
1510562875.4,286046997.9,N
1510562895.3,286046997.8,N
1510562915.1,286046995.7,N
1510562935.9,286046991.8,Y
1510562955.7,286046997.3,P
1510562975.5,286046996.2,P
1510562995.3,286046994.9,P
1510563015.2,286046993.6,Y
1510563035.0,286046998.8,P
1510563035.9,286046998.8,N
1510563055.7,286047000.4,N
1510563075.6,286047003.4,N
1510563095.4,286047003.1,N
1510563115.2,286047002.4,N
1510563135.1,286047000.7,N
1510563136.0,286047000.7,N
1510563155.8,286047000.3,N
1510563175.6,286047002.8,N
1510563195.5,286047001.9,N
1510563215.3,286046998.5,N
1510563235.1,286047002.4,N
1510563255.9,286047000.8,N
1510563275.7,286046998.8,N
1510563295.5,286046999.5,N
1510563315.4,286046999.6,N
1510563335.2,286046999.5,N
1510563355.0,286046997.0,N
1510563355.9,286046997.0,N
1510563375.7,286047000.3,N
1510563395.6,286046998.2,N
1510563415.4,286046999.9,N
1510563435.2,286047000.8,N
1510563455.1,286046999.7,N
1510563456.0,286046999.7,N
1510563475.8,286046998.4,N
1510563495.6,286047001.9,N
1510563515.5,286047002.1,N
1510563535.3,286047003.9,N
1510563555.1,286047004.3,N
1510563575.9,286047005.5,N
1510563595.7,286047007.5,Y
